Showing default

OPS 9325 (IDSCS 12), 2652

Orbit data source: Space-Track

OPS 9325 (IDSCS 12), 2652 is a payload satellite owned by USAF SSD (US) in GEO that was launched on Wed, 18 Jan 1967 UTC via a TITAN IIIC launch vehicle from the Air Force Eastern Test Range (AFETR). Payloads include a variety of satellites, spacecraft, and rockets equipped with specific instruments for various scientific and technological missions. These include communications satellites like Starlink; space stations such as the ISS; scientific satellites like the Hubble; Earth observation satellites from companies like Planet Labs, Umbra, and HawkEye 360; GPS; miniature CubeSats for education and research; and military/defense satellites.

Loading next visibility...
OPS 9325 (IDSCS 12) details
Identifier
2652, 1967-003E
Orbit
GEO
Last TLE update3 days ago
Origin
Flag of USUSAF SSD (US)
ManufacturerPhilco-Ford WDL
MissionNon-operational Defense Communications
Bus & MotorIDCSP, Unknown motor
Mass45 kg wet, 45 kg dry
Launch date (UTC)
1967-01-18 (58 years ago)
Launch vehicle
TITAN IIIC
Launch site
Air Force Eastern Test Range (AFETR)
Object type
Payload
Rocket body
Debris
Shape & HBRIco Poly, 0.9 m
Radar Cross Section0.926 m², Small (<0.1 m²)

Expand to show TLE details & history

TLE from 3 days ago
0 OPS 9325 (IDSCS 12)
1 02652U 67003E   24353.34436499 -.00000076  00000-0  00000-0 0  9994
2 02652   7.2217  50.5825 0037684  66.7058 293.5996  1.07942927134227
Epoch: 2024-12-18T08:15Z
Definitive object data (Epoch: 2024-12-18T08:15:53.135Z)
Latitude0.00001°
Longitude-160.91425°
Altitude33,703.149 km
Speed3.156 km/s
True Right ascension03h 21m 59s
True Declination0° 00' 00"
Sunlit
Object was in daylight at TLE epoch
Visualization TLE readout
Latitude1.94383°
Longitude3.60563°
Altitude33,783.432 km
Speed3.15 km/s
Apparent Right ascension14h 37m 14s
Apparent Declination-4° 17' 11"
Sunlit
Object is in daylight
Visualization observer readout
Local Sidereal Time12:05:54
Azimuth132.615° SE
Elevation33.789°
Doppler factor1
Orbital elements
Apogee altitude33,916.856 km
Perigee altitude33,614.301 km
Semi-major axis40,143.716 km
Eccentricity0.0037684
Inclination7.2217°
RAAN50.5825°
Arg. of periapsis66.7058°
True anomaly293.20314°
Mean anomaly293.5996°
Eccentric anomaly293.40145°
Mean motion0.26985 °/min
BSTARUnknown
Orbital period1334.09 mins
Loading historical data...
2652 neighbors
Authenticating...
Loading maneuver chart data...
Loading historical data...
Loading historical data...
Loading historical data...
Loading historical data...
Loading historical data...
Loading historical data...
Loading historical data...

OPS 9325 (IDSCS 12) Visibility forecast

Observer location: undefined°, undefined

Span
Click to sort rows by Start time (UTC) header in descending order
Start Az.
Max El. time (UTC)
Max El. Az.
Max El.
End time (UTC)
End Az.
1440 mins2024-12-21 13:04:00.717Z132.63° SE2024-12-21 13:04:00.717Z132.63° SE29.072°2024-12-22 13:04:00.717Z110.92° ESE
|